SCP
0 0 0 0 0 0 0 0 0 0 0 0 0 0 0 0 0 0 0 0 0 0 0 0 0 0 0 0 0 0 0 0 0 0 0 0 0 0 0 0 0 0 0 0 0 0 0 0 0
0 0 0 0 0 0 0 0 0 0 0 0 0 0 0 0 0 0 0 0 0 0 0 0 0 0 0 0 0 0 0 0 0 0 0 0 0 0 0 0 0 0 0 0 0 0 0 0 0
0 0 0 0 0 0 0 0 0 0 0 0 0 0 0 0 0 0 0 0 0 0 0 0 0 0 0 0 0 0 0 0 0 0 0 0 0 0 0 0 0 0 0 0 0 0 0 0 0
0 0 0 0 0 0 0 0 0 0 0 0 0 0 0 0 0 0 0 0 0 0 0 0 0 0 0 0 0 0 0 0 0 0 0 0 0 0 0 0 0 0 0 0 0 0 0 0 0
0 0 0 0 0 0 0 0 0 0 0 0 0 0 0 0 0 0 0 0 0 0 0 0 0 0 0 0 0 0 0 0 0 0 0 0 0 0 0 0 0 0 0 0 0 0 0 0 0
0 0 0 0 0 0 0 0 0 0 0 0 0 0 0 0 0 0 0 0 0 0 0 0 0 0 0 0 0 0 0 0 0 0 0 0 0 0 0 0 0 0 0 0 0 0 0 0 0
0 0 0 0 0 0 0 0 0 0 0 0 0 0 0 0 0 0 0 0 0 0 0 0 0 0 0 0 0 0 0 0 0 0 0 0 0 0 0 0 0 0 0 0 0 0 0 0 0
0 0 0 0 0 0 0 0 0 0 0 0 0 0 0 0 0 0 0 0 0 0 0 0 0 0 0 0 0 0 0 0 0 0 0 0 0 0 0 0 0 0 0 0 0 0 0 0 0
0 0 0 0 0 0 0 0 0 0 0 0 0 0 0 0 0 0 0 0 0 0 0 0 0 0 0 0 0 0 0 0 0 0 0 0 0 0 0 0 0 0 0 0 0 0 0 0 0
0 0 0 0 0 0 0 0 0 0 0 0 0 0 0 0 0 0 0 0 0 0 0 0 0 0 0 0 0 0 0 0 0 0 0 0 0 0 0 0 0 0 0 0 0 0 0 0 0
0 0 0 0 0 0 0 0 0 0 0 0 0 0 0 0 0 0 0 0 0 0 0 0 0 0 0 0 0 0 0 0 0 0 0 0 0 0 0 0 0 0 0 0 0 0 0 0 0
0 0 0 0 0 0 0 0 0 0 0 0 0 0 0 0 0 0 0 0 0 0 0 0 0 0 0 0 0 0 0 0 0 0 0 0 0 0 0 0 0 0 0 0 0 0 0 0 0
0 0 0 0 0 0 0 0 0 0 0 0 0 0 0 0 0 0 0 0 0 0 0 0 0 0 0 0 0 0 0 0 0 0 0 0 0 0 0 0 0 0 0 0 0 0 0 0 0
0 0 0 0 0 0 0 0 0 0 0 0 0 0 0 0 0 0 0 0 0 0 0 0 0 0 0 0 0 0 0 0 0 0 0 0 0 0 0 0 0 0 0 0 0 0 0 0 0
0 0 0 0 0 0 0 0 0 0 0 0 0 0 0 0 0 0 0 0 0 0 0 0 0 0 0 0 0 0 0 0 0 0 0 0 0 0 0 0 0 0 0 0 0 0 0 0 0
0 0 0 0 0 0 0 0 0 0 0 0 0 0 0 0 0 0 0 0 0 0 0 0 0 0 0 0 0 0 0 0 0 0 0 0 0 0 0 0 0 0 0 0 0 0 0 0 0
0 0 0 0 0 0 0 0 0 0 0 0 0 0 0 0 0 0 0 0 0 0 0 0 0 0 0 0 0 0 0 0 0 0 0 0 0 0 0 0 0 0 0 0 0 0 0 0 0
0 0 0 0 0 0 0 0 0 0 0 0 0 0 0 0 0 0 0 0 0 0 0 0 0 0 0 0 0 0 0 0 0 0 0 0 0 0 0 0 0 0 0 0 0 0 0 0 0
0 0 0 0 0 0 0 0 0 0 0 0 0 0 0 0 0 0 0 0 0 0 0 0 0 0 0 0 0 0 0 0 0 0 0 0 0 0 0 0 0 0 0 0 0 0 0 0 0
0 0 0 0 0 0 0 0 0 0 0 0 0 0 0 0 0 0 0 0 0 0 0 0 0 0 0 0 0 0 0 0 0 0 0 0 0 0 0 0 0 0 0 0 0 0 0 0 0
0 0 0 0 0 0 0 0 0 0 0 0 0 0 0 0 0 0 0 0 0 0 0 0 0 0 0 0 0 0 0 0 0 0 0 0 0 0 0 0 0 0 0 0 0 0 0 0 0
0 0 0 0 0 0 0 0 0 0 0 0 0 0 0 0 0 0 0 0 0 0 0 0 0 0 0 0 0 0 0 0 0 0 0 0 0 0 0 0 0 0 0 0 0 0 0 0 0
0 0 0 0 0 0 0 0 0 0 0 0 0 0 0 0 0 0 0 0 0 0 0 0 0 0 0 0 0 0 0 0 0 0 0 0 0 0 0 0 0 0 0 0 0 0 0 0 0
0 0 0 0 0 0 0 0 0 0 0 0 0 0 0 0 0 0 0 0 0 0 0 0 0 0 0 0 0 0 0 0 0 0 0 0 0 0 0 0 0 0 0 0 0 0 0 0 0
0 0 0 0 0 0 0 0 0 0 0 0 0 0 0 0 0 0 0 0 0 0 0 0 0 0 0 0 0 0 0 0 0 0 0 0 0 0 0 0 0 0 0 0 0 0 0 0 0
0 0 0 0 0 0 0 0 0 0 0 0 0 0 0 0 0 0 0 0 0 0 0 0 0 0 0 0 0 0 0 0 0 0 0 0 0 0 0 0 0 0 0 0 0 0 0 0 0
0 0 0 0 0 0 0 0 0 0 0 0 0 0 0 0 0 0 0 0 0 0 0 0 0 0 0 0 0 0 0 0 0 0 0 0 0 0 0 0 0 0 0 0 0 0 0 0 0
0 0 0 0 0 0 0 0 0 0 0 0 0 0 0 0 0 0 0 0 0 0 0 0 0 0 0 0 0 0 0 0 0 0 0 0 0 0 0 0 0 0 0 0 0 0 0 0 0
0 0 0 0 0 0 0 0 0 0 0 0 0 0 0 0 0 0 0 0 0 0 0 0 0 0 0 0 0 0 0 0 0 0 0 0 0 0 0 0 0 0 0 0 0 0 0 0 0
0 0 0 0 0 0 0 0 0 0 0 0 0 0 0 0 0 0 0 0 0 0 0 0 0 0 0 0 0 0 0 0 0 0 0 0 0 0 0 0 0 0 0 0 0 0 0 0 0
Wind_Speed
3 2 2 3 3 2 5 4 3 4 4 6 5 4 6 7 6 6 5 4 4 5 6 7 5 6 6 7 7 7 7 7 7 7 7 7 7 7 7 7 7 7 8 7 7 7 7 8 8
1 1 3 3 2 3 5 4 5 6 6 5 5 5 6 7 6 7 5 5 5 6 5 7 6 6 6 7 7 7 7 7 7 7 7 7 7 7 7 7 7 7 7 7 7 7 7 8 8
2 2 2 1 1 3 5 5 6 6 5 3 4 5 5 6 5 5 5 6 6 6 6 8 5 6 6 6 7 7 7 7 7 7 7 7 7 7 7 7 7 7 7 7 7 7 7 7 7
2 2 1 1 6 5 5 5 5 6 5 3 4 6 6 5 4 6 7 6 6 6 6 7 5 6 6 6 6 7 7 7 7 7 7 8 7 7 8 7 7 7 7 7 7 7 7 8 7
2 1 3 4 6 5 4 4 4 4 4 4 4 7 7 5 6 8 7 6 6 6 5 7 6 6 6 6 7 7 7 8 8 8 8 7 7 7 7 7 7 7 7 7 7 7 7 8 7
2 2 3 5 6 5 4 3 4 4 5 5 5 6 7 6 7 7 7 6 6 6 5 6 7 6 6 6 6 7 8 8 7 8 7 7 7 7 7 7 7 7 7 7 7 7 7 7 7
1 1 3 5 5 5 4 3 3 4 5 4 3 5 7 7 6 7 7 6 6 5 5 5 5 6 7 6 6 7 7 7 8 7 7 7 7 7 7 7 7 7 7 7 7 7 7 7 7
1 2 5 4 4 4 4 4 3 3 5 4 2 3 6 8 8 7 6 5 5 5 5 4 4 4 5 6 7 7 7 7 7 7 7 6 6 7 6 7 7 7 8 8 7 7 7 8 8
2 3 4 4 4 5 6 5 5 3 5 4 3 4 7 10 9 8 6 5 4 4 4 4 4 4 4 5 6 6 6 6 5 6 5 2 3 5 5 9 8 8 8 8 8 8 7 6 7
2 2 3 2 3 5 5 4 5 5 5 5 6 7 9 10 9 7 6 5 5 4 4 3 4 4 4 3 4 3 3 3 3 4 4 3 4 5 5 8 7 7 7 7 7 6 4 1 3
1 2 3 3 3 4 5 4 3 4 3 3 6 9 10 9 8 7 6 5 4 4 4 4 4 4 4 3 3 2 2 2 3 4 4 3 3 3 3 3 4 4 4 4 4 3 3 3 3
3 2 2 3 4 4 4 4 3 2 1 3 5 9 10 9 8 6 6 5 4 4 4 4 4 4 3 3 3 2 2 2 2 3 3 3 2 2 3 2 3 2 2 3 3 2 4 3 3
4 3 3 3 4 4 4 4 3 2 2 4 8 9 9 8 7 6 5 5 5 4 4 4 3 3 3 3 2 2 2 2 3 2 2 3 2 2 3 3 3 3 2 2 2 2 4 3 4
4 4 3 3 4 4 5 4 3 3 4 6 9 9 8 7 6 5 5 5 4 5 4 4 3 3 3 2 2 2 2 2 2 2 2 3 2 2 2 3 3 3 2 2 2 3 3 3 3
5 5 4 3 4 4 4 4 3 4 5 7 7 8 7 6 6 6 5 5 5 5 4 4 3 3 3 3 2 2 2 2 2 2 2 3 3 2 2 2 2 2 2 2 2 3 2 3 3
5 5 4 3 3 4 6 3 4 4 6 7 7 7 7 6 7 6 5 5 5 5 5 5 3 3 3 3 2 2 2 2 2 2 2 3 3 3 2 2 2 2 2 2 2 2 2 3 2
6 5 4 4 3 4 5 3 3 4 6 6 6 6 6 6 6 6 5 5 5 5 4 4 4 3 3 3 2 2 2 2 2 2 2 2 2 2 2 2 1 2 1 1 2 2 2 3 3
5 4 3 3 3 5 5 4 3 4 5 5 6 6 6 7 7 6 6 6 5 4 4 4 4 3 3 2 2 2 2 2 1 2 2 2 2 2 2 1 1 2 1 1 1 2 2 2 2
3 4 4 2 2 4 5 5 4 4 6 6 6 7 6 6 6 6 6 6 5 5 4 4 4 3 3 2 2 2 2 1 2 2 2 2 1 2 2 1 2 1 2 1 2 2 3 2 1
6 6 5 3 3 4 4 5 4 5 6 6 7 7 6 6 6 7 7 7 6 6 5 4 4 3 3 2 2 1 1 1 1 1 1 1 1 2 1 1 1 2 1 1 2 2 1 1 0
8 7 5 4 3 5 5 6 6 5 5 5 6 6 6 6 6 7 8 7 7 6 6 5 4 4 4 3 2 2 2 1 1 1 1 1 1 2 1 1 1 1 1 1 1 2 1 1 0
7 6 6 6 7 5 6 5 4 5 6 6 6 6 6 6 6 6 6 7 7 6 6 5 4 4 4 4 4 4 2 2 1 1 1 1 1 1 1 1 1 1 1 1 1 1 1 1 1
4 3 6 7 7 6 6 7 3 4 5 5 6 6 6 6 6 6 6 6 6 6 5 5 5 4 4 4 4 4 2 2 1 1 2 1 1 1 1 1 1 1 1 1 1 0 1 1 1
5 5 5 5 7 8 6 7 3 3 3 3 4 5 5 5 5 5 4 5 5 5 5 5 5 5 5 5 5 4 4 3 2 2 2 1 1 1 1 1 1 1 1 1 1 1 1 1 0
8 7 5 6 7 4 2 5 3 1 0 2 3 4 4 5 5 4 4 4 5 5 5 5 5 5 5 5 5 5 4 4 3 3 2 2 1 1 1 1 1 1 1 1 1 1 1 2 1
9 9 6 5 4 2 5 6 1 2 1 1 2 2 3 4 4 4 4 4 5 6 6 5 5 5 5 5 5 4 4 3 2 2 2 2 1 1 1 1 1 1 1 1 1 2 2 2 2
8 8 6 7 5 6 5 4 3 3 2 2 2 2 2 3 3 3 3 4 4 5 5 5 5 5 5 5 5 4 4 3 3 3 2 2 2 1 2 2 2 2 2 2 2 2 2 2 1
4 4 5 7 6 7 5 6 4 4 3 3 2 2 2 2 2 2 2 3 3 4 4 4 5 5 5 5 4 4 4 4 3 3 3 2 2 2 3 2 2 2 2 2 2 2 2 2 1
6 6 6 5 6 7 5 2 2 2 2 2 2 2 2 2 2 2 2 2 2 3 4 4 5 4 4 4 4 4 4 3 3 3 3 3 3 2 3 3 2 2 2 2 2 2 2 2 3
5 6 7 7 7 7 7 2 4 1 1 1 1 2 2 2 2 2 2 2 2 2 3 4 4 4 4 3 4 4 3 3 3 3 3 3 3 2 2 2 2 2 2 2 2 2 3 3 3
Wind_Direction
189 188 220 236 220 137 88 83 84 96 80 67 64 63 63 48 36 64 83 97 93 108 106 111 92 83 78 80 78 73 72 74 76 79 81 83 82 88 91 90 88 85 86 84 80 79 80 80 78
171 199 236 245 236 134 100 98 97 84 93 103 85 76 77 70 59 85 103 101 109 108 103 91 88 83 79 79 80 79 77 76 78 80 81 81 81 84 86 88 90 87 87 87 83 81 82 80 77
147 251 271 238 110 88 107 108 103 98 102 104 91 63 54 66 82 93 96 116 117 108 99 90 85 81 77 77 78 79 78 77 77 79 80 80 80 83 84 86 86 86 87 87 86 83 81 81 79
210 213 210 137 102 81 96 113 120 121 107 87 102 92 78 58 75 93 110 120 118 110 101 94 84 81 77 77 75 77 79 77 78 79 79 79 80 81 81 83 84 83 83 82 81 83 83 82 81
224 229 149 123 106 102 101 105 131 120 107 100 105 99 92 83 90 106 117 119 115 108 99 96 85 79 78 77 74 74 78 79 79 79 77 76 78 81 80 78 79 79 79 79 78 83 82 81 79
197 212 159 131 118 118 124 130 134 112 104 108 113 107 96 106 113 113 118 118 110 106 104 104 103 88 78 75 75 73 77 79 80 80 79 79 79 79 79 79 79 77 77 77 78 81 78 79 78
183 152 127 125 131 133 124 130 130 118 111 102 114 112 115 127 121 124 120 112 106 105 103 98 104 114 109 88 77 78 77 80 82 80 78 81 86 82 81 79 77 78 77 78 78 78 78 77 75
276 159 140 142 149 129 129 134 115 107 99 101 134 115 121 134 135 131 121 116 112 109 103 97 96 96 102 107 92 84 79 77 79 79 75 82 101 100 92 88 76 76 77 77 78 78 78 76 73
225 188 153 151 153 133 143 141 123 111 117 112 93 70 104 131 141 137 130 127 115 103 96 94 89 90 89 89 102 106 97 88 101 99 97 106 85 89 96 72 75 78 81 81 80 80 82 91 93
209 177 129 125 140 132 143 144 141 148 138 136 125 112 124 138 145 143 141 137 129 116 104 98 96 91 89 85 95 94 93 101 91 84 90 81 73 63 68 93 86 87 92 97 88 92 117 146 101
147 120 116 127 137 140 144 138 152 161 149 153 149 142 142 146 146 144 141 134 121 114 104 94 97 91 89 91 82 74 78 83 86 79 78 74 77 82 72 85 112 107 110 91 103 117 72 68 67
133 113 131 126 136 151 152 148 152 175 95 96 132 141 147 153 153 152 145 135 132 121 113 105 97 95 88 84 84 83 83 80 79 79 76 77 71 67 69 69 67 74 77 70 63 59 70 63 64
152 128 117 127 140 148 150 154 150 138 91 119 134 145 152 156 157 156 147 146 141 134 131 119 110 96 91 83 80 87 77 75 87 78 80 79 72 74 77 77 71 64 67 70 58 58 63 57 53
127 133 136 143 147 155 155 156 175 150 139 140 147 155 160 164 168 163 164 161 153 150 140 131 125 109 103 100 94 79 75 81 75 76 73 78 78 75 75 78 73 63 56 56 61 67 68 63 60
153 149 147 157 171 170 179 176 190 151 158 155 160 163 164 169 176 184 178 175 168 157 149 135 133 131 118 103 91 91 83 84 83 79 72 76 75 77 77 70 75 72 70 68 62 71 69 70 75
181 188 178 155 185 183 217 199 150 160 174 172 172 170 174 178 189 190 183 179 171 163 152 141 144 149 135 127 120 100 88 84 82 81 73 76 81 74 68 66 68 66 63 65 74 72 81 77 71
199 200 183 161 183 193 217 219 144 170 184 185 185 184 187 188 194 188 181 176 170 163 158 153 149 152 142 132 123 105 104 97 93 84 74 70 77 81 81 61 58 73 78 72 77 76 76 80 73
194 199 197 196 171 202 214 222 180 183 197 200 198 196 195 197 194 185 177 170 167 164 161 158 158 159 143 141 133 118 110 102 91 82 71 62 69 81 86 92 81 73 84 81 88 97 94 83 87
229 223 216 207 180 218 221 231 218 193 205 210 208 205 200 201 186 179 173 172 173 174 173 168 174 168 161 157 157 151 137 119 99 79 76 85 93 95 90 79 80 71 84 93 103 107 116 106 100
223 227 218 185 177 229 233 248 238 214 213 214 214 205 200 194 188 181 182 179 183 182 184 180 180 177 176 178 176 166 126 106 83 86 80 77 84 85 96 106 106 106 100 107 112 124 127 111 243
223 233 230 222 201 213 243 241 217 204 209 213 220 217 209 203 198 194 193 190 189 188 190 187 187 185 184 176 161 146 141 156 138 118 99 75 83 89 92 115 118 123 129 121 150 173 184 174 127
225 229 237 231 234 225 240 266 213 204 205 206 208 211 212 209 210 205 202 198 195 192 191 192 188 191 182 177 179 178 184 176 174 151 134 132 111 102 91 107 139 137 114 141 178 163 199 209 181
237 219 223 232 244 251 234 257 225 194 219 209 205 206 203 204 204 201 203 200 194 187 189 195 191 188 182 184 183 197 196 183 166 159 149 150 134 137 132 127 158 142 137 152 164 149 226 212 214
185 183 188 220 241 247 241 248 255 195 235 214 192 196 202 201 198 196 194 193 189 182 184 192 191 188 191 195 194 196 190 186 176 179 171 174 159 164 162 153 174 175 175 187 200 185 187 225 185
207 219 218 216 219 237 178 241 254 71 333 241 208 197 193 190 189 186 181 178 182 184 186 187 187 188 190 196 195 194 193 194 195 193 185 199 190 175 177 180 192 181 206 213 210 225 218 208 206
211 229 244 255 250 215 194 233 167 104 84 236 213 187 178 180 184 181 178 176 180 185 190 193 193 191 187 194 192 193 191 200 203 211 209 217 216 191 184 196 194 201 206 219 213 236 220 219 208
209 221 259 270 265 259 222 213 194 155 162 139 148 156 167 180 179 178 176 175 177 186 191 198 196 192 187 193 193 194 197 205 210 210 210 211 207 193 194 203 206 203 210 224 216 224 223 221 225
270 208 214 237 250 248 232 232 220 181 184 170 160 162 169 164 171 171 176 179 177 181 192 192 195 196 190 193 193 194 201 205 207 210 200 200 199 198 200 206 210 208 218 221 215 228 234 215 205
191 206 222 234 256 265 256 218 98 168 156 178 186 175 164 162 164 160 156 166 174 179 184 185 189 191 190 194 192 191 193 198 199 201 201 203 202 201 208 205 204 207 216 220 208 222 222 225 218
239 231 228 241 238 248 270 259 101 129 122 169 188 163 148 152 154 148 146 146 156 172 189 187 189 190 192 194 193 192 189 191 199 201 206 203 198 200 212 207 205 208 223 234 225 218 228 228 231